TimeEST,TemperatureF,Dew PointF,Humidity,Sea Level PressureIn,VisibilityMPH,Wind Direction,Wind SpeedMPH,Gust SpeedMPH,PrecipitationIn,Events,Conditions,WindDirDegrees,DateUTC
12:53 AM,66.9,60.1,79,29.97,10.0,WNW,4.6,-,N/A,,Overcast,300,2013-02-28 05:53:00
1:53 AM,66.9,59.0,76,29.95,10.0,NNW,6.9,-,N/A,,Mostly Cloudy,330,2013-02-28 06:53:00
2:08 AM,66.2,60.8,83,29.96,10.0,NNW,5.8,-,N/A,,Mostly Cloudy,340,2013-02-28 07:08:00
2:29 AM,64.4,60.8,88,29.96,10.0,North,4.6,-,N/A,,Mostly Cloudy,360,2013-02-28 07:29:00
2:36 AM,64.4,59.0,83,29.96,10.0,North,5.8,-,N/A,,Scattered Clouds,360,2013-02-28 07:36:00
2:53 AM,64.0,59.0,84,29.96,10.0,North,3.5,-,N/A,,Mostly Cloudy,350,2013-02-28 07:53:00
3:53 AM,64.0,57.9,80,29.96,10.0,North,4.6,-,N/A,,Overcast,360,2013-02-28 08:53:00
4:01 AM,64.4,57.2,77,29.96,10.0,North,5.8,-,N/A,,Overcast,360,2013-02-28 09:01:00
4:36 AM,62.6,57.2,82,29.96,10.0,North,4.6,-,N/A,,Overcast,10,2013-02-28 09:36:00
4:53 AM,63.0,57.0,81,29.97,10.0,NNE,5.8,-,N/A,,Mostly Cloudy,20,2013-02-28 09:53:00
5:53 AM,62.1,55.9,80,29.97,10.0,North,5.8,-,N/A,,Mostly Cloudy,10,2013-02-28 10:53:00
6:53 AM,61.0,55.0,81,29.99,10.0,NNE,3.5,-,N/A,,Partly Cloudy,30,2013-02-28 11:53:00
7:53 AM,62.1,55.0,78,30.00,10.0,ENE,5.8,-,N/A,,Overcast,60,2013-02-28 12:53:00
9:53 AM,66.0,54.0,65,30.02,10.0,North,6.9,-,N/A,,Overcast,350,2013-02-28 14:53:00
10:53 AM,64.9,54.0,68,30.03,10.0,North,4.6,-,N/A,,Mostly Cloudy,10,2013-02-28 15:53:00
11:53 AM,64.9,54.0,68,30.01,10.0,North,4.6,-,N/A,,Overcast,10,2013-02-28 16:53:00
12:53 PM,68.0,48.9,50,29.98,10.0,North,5.8,-,N/A,,Mostly Cloudy,360,2013-02-28 17:53:00
1:53 PM,70.0,53.1,55,29.97,10.0,Variable,6.9,-,N/A,,Mostly Cloudy,0,2013-02-28 18:53:00
2:53 PM,71.1,53.1,53,29.96,10.0,NW,6.9,16.1,N/A,,Clear,320,2013-02-28 19:53:00
3:53 PM,71.1,55.0,57,29.94,10.0,WNW,11.5,-,N/A,,Partly Cloudy,300,2013-02-28 20:53:00
4:53 PM,70.0,54.0,57,29.94,10.0,WNW,10.4,-,N/A,,Clear,290,2013-02-28 21:53:00
5:53 PM,66.9,55.0,66,29.96,10.0,WNW,12.7,19.6,N/A,,Clear,290,2013-02-28 22:53:00
7:53 PM,66.9,55.0,66,29.96,10.0,NW,6.9,-,N/A,,Clear,320,2013-03-01 00:53:00
8:53 PM,66.9,55.0,66,29.97,10.0,NW,4.6,-,N/A,,Overcast,320,2013-03-01 01:53:00
9:53 PM,66.9,55.0,66,29.98,10.0,WNW,4.6,-,N/A,,Overcast,300,2013-03-01 02:53:00
10:53 PM,66.0,55.9,70,29.96,10.0,Calm,Calm,-,N/A,,Mostly Cloudy,0,2013-03-01 03:53:00
11:53 PM,64.9,55.9,73,29.95,10.0,Calm,Calm,-,N/A,,Mostly Cloudy,0,2013-03-01 04:53:00